Wind_Speed
4 5 2 2 1 4 3 5 7 3 5 3 5 5 7 20 24 24 27 28 32 31 26 28 34 34 34 31 27 24 21 25 27 28 26 21 16 16 20 20 15 16 21 19
5 3 8 8 12 9 7 8 4 1 9 4 5 3 7 11 22 28 24 27 27 20 25 36 38 39 37 32 29 27 25 22 28 31 30 27 23 20 18 20 20 17 19 23
3 4 4 9 4 4 3 3 3 1 5 1 2 6 6 8 9 9 17 11 18 20 27 40 43 44 37 36 32 29 28 25 23 30 34 31 28 26 23 23 25 23 20 25
1 6 3 5 7 6 2 3 9 7 4 5 5 5 6 5 6 5 9 14 14 17 24 34 43 43 41 38 33 28 27 26 24 24 28 35 38 32 26 22 17 22 19 25
3 6 9 5 7 9 9 6 8 8 3 3 2 1 7 3 6 7 4 15 18 14 10 24 35 43 42 39 38 32 28 27 26 27 26 28 39 38 31 25 22 20 18 23
6 9 8 10 12 16 2 2 5 6 4 1 4 6 7 4 6 3 5 14 19 15 14 14 13 24 37 37 36 38 33 28 27 29 29 28 27 30 29 25 24 21 21 22
1 6 4 9 3 3 4 5 3 3 1 6 3 3 9 2 6 8 11 18 18 18 18 22 20 15 29 42 39 38 39 33 31 31 31 29 26 27 27 25 25 24 24 22
1 7 7 6 7 7 6 7 5 5 4 5 2 6 5 4 3 6 11 6 11 15 21 19 18 12 16 32 39 36 40 37 36 35 36 34 32 22 26 29 28 21 16 14
4 6 3 4 3 3 5 4 5 3 3 2 3 6 1 3 2 3 5 8 4 8 14 17 17 20 17 24 33 44 37 38 38 38 37 35 29 10 25 29 18 12 11 11
4 2 2 4 1 0 2 3 3 3 2 4 4 5 4 7 8 4 4 10 7 5 9 17 17 16 19 23 34 39 45 41 33 35 34 31 25 29 24 18 15 12 9 7
5 4 4 0 1 2 3 3 4 4 4 2 3 6 5 12 14 8 6 3 4 3 2 6 11 13 14 19 29 34 38 31 25 22 29 25 15 15 14 11 10 9 8 7
2 5 2 5 2 1 1 2 4 5 6 3 5 6 4 4 13 20 12 12 9 8 7 5 5 6 8 12 18 23 29 30 26 29 18 12 13 11 9 10 11 9 8 6
4 3 3 8 7 5 3 1 3 4 3 4 4 6 2 9 15 18 15 15 13 10 9 6 7 8 10 12 13 14 16 15 14 12 11 10 10 8 9 10 10 8 5 3
4 3 6 6 7 4 3 2 3 4 3 3 6 7 5 7 12 17 19 20 18 17 15 14 13 12 13 12 11 10 8 7 7 5 4 5 7 9 10 10 7 3 3 2
4 3 5 7 6 4 4 5 4 5 6 6 8 7 4 12 15 18 17 20 21 20 19 18 16 15 15 15 13 12 8 4 3 5 4 6 9 10 9 7 5 5 6 6
3 2 2 3 5 6 5 8 6 3 5 7 5 7 3 14 24 20 22 25 25 24 23 21 17 16 16 14 11 11 8 7 6 6 7 9 10 8 7 8 7 7 7 6
3 5 3 5 2 5 5 6 5 3 1 3 6 6 6 6 13 22 28 30 28 25 22 22 21 18 16 13 10 12 14 14 10 7 7 7 10 10 9 9 9 8 7 5
6 4 3 4 3 1 7 6 4 6 2 4 3 4 3 4 11 19 20 22 19 18 19 20 21 19 17 13 11 12 14 13 12 10 9 9 9 10 10 10 9 8 6 5
1 4 2 2 3 5 3 3 2 3 5 5 4 4 9 12 7 12 17 19 18 17 18 20 19 18 18 14 12 15 17 15 13 10 7 6 9 11 9 9 8 6 4 2
4 5 4 2 2 5 7 3 6 5 4 11 12 8 4 8 3 6 14 24 20 19 15 19 22 20 18 16 15 16 15 12 11 8 6 5 5 6 5 5 4 4 6 8
4 4 1 1 4 7 6 6 2 3 6 3 7 4 8 7 9 14 11 20 17 17 19 19 22 21 19 18 16 14 11 9 8 7 5 4 3 4 3 5 8 8 9 10
4 2 3 2 0 6 2 7 1 3 6 17 15 8 10 28 29 20 11 18 18 16 19 22 20 17 18 17 16 14 11 9 8 6 7 8 7 7 8 9 9 10 11 13
2 5 3 8 6 5 4 1 2 4 8 16 8 13 18 28 30 19 16 17 17 14 17 18 16 16 18 17 16 14 12 11 7 6 7 8 7 8 8 8 9 10 12 14
4 3 2 2 4 5 12 9 9 8 5 23 14 13 24 27 29 25 23 16 14 15 16 16 17 18 18 18 17 14 14 14 11 9 7 7 7 6 6 8 10 12 14 15
5 3 3 4 8 8 5 7 8 4 5 14 22 24 22 23 24 22 20 16 15 17 17 17 17 19 18 19 19 19 19 15 13 12 9 8 7 5 8 11 13 13 15 14
6 6 4 5 8 6 6 6 10 7 5 7 11 23 25 21 19 20 18 17 14 17 15 17 17 20 21 20 19 19 17 14 14 13 13 12 12 12 13 14 20 18 15 14
Wind_Direction
16 71 129 230 232 154 179 219 249 345 333 65 321 164 191 188 205 206 215 220 210 216 218 214 202 204 202 201 201 203 202 200 201 204 203 201 203 201 212 222 218 228 233 234
36 163 215 175 207 201 239 268 279 37 7 107 11 303 243 227 208 201 208 217 224 216 208 204 201 201 204 203 205 205 207 205 209 212 210 209 210 211 218 220 228 226 234 227
153 221 194 228 233 166 340 38 316 19 345 35 267 284 199 241 242 234 218 229 210 213 204 200 199 202 208 205 206 209 212 208 199 204 210 213 214 220 227 229 231 234 238 227
155 181 163 356 1 85 289 263 213 170 127 253 42 269 256 226 231 211 231 228 201 207 197 205 204 206 212 213 210 214 217 217 205 194 206 213 214 219 228 228 238 242 230 224
241 186 165 196 215 161 233 210 188 161 156 63 217 16 272 31 253 252 197 217 213 207 175 206 211 215 215 215 215 217 218 221 215 206 206 212 219 229 232 232 244 243 233 229
178 182 178 204 228 199 285 151 47 43 59 278 213 158 274 204 223 208 160 178 188 186 202 203 221 232 226 221 221 223 221 223 223 215 214 217 222 222 224 234 243 241 233 239
171 197 212 187 104 57 73 51 350 16 351 228 321 155 248 253 221 188 173 178 186 190 204 203 231 232 229 226 224 229 225 225 224 222 221 223 228 234 241 247 243 237 241 245
184 316 179 181 192 179 183 151 165 228 206 250 42 232 270 328 333 188 182 187 188 206 202 205 234 201 225 233 227 232 229 228 227 225 221 221 226 233 250 259 257 258 252 250
162 275 302 182 119 155 185 181 194 164 60 77 233 285 101 33 29 173 185 172 176 214 221 236 254 237 263 243 231 226 231 234 228 225 218 220 228 197 256 259 251 240 247 246
226 277 238 360 106 350 159 179 27 8 258 266 269 276 239 230 224 248 227 171 169 196 250 256 274 269 268 230 225 231 229 234 231 228 224 220 232 226 229 234 233 224 213 193
138 126 287 339 110 221 8 2 42 120 138 203 315 273 194 220 206 173 180 124 182 154 272 294 289 272 243 224 212 219 224 223 221 236 233 242 218 207 206 213 208 190 170 178
158 138 166 228 274 341 1 112 130 114 273 190 155 273 294 301 165 154 161 173 184 185 175 175 178 186 208 205 206 210 217 214 207 214 210 195 196 192 198 191 180 176 171 169
187 22 35 348 357 352 53 359 114 129 95 238 143 262 122 110 132 159 162 173 177 185 183 173 164 159 156 159 157 161 166 175 178 185 188 194 206 190 176 177 169 167 187 216
91 96 149 186 213 192 257 243 194 138 114 232 233 277 184 172 165 164 170 175 182 185 188 174 163 156 153 157 150 150 160 172 178 180 196 195 165 160 175 180 180 195 210 187
94 144 188 222 232 219 235 246 273 203 218 169 254 218 253 191 181 177 175 177 185 187 186 185 177 176 177 172 170 157 161 162 182 161 164 167 169 174 171 170 193 173 146 134
3 253 195 277 272 231 255 261 269 242 234 247 263 263 232 162 163 172 185 189 192 193 196 199 194 184 178 173 157 153 143 128 118 131 150 159 158 156 163 156 148 142 136 138
163 139 109 245 324 340 315 252 265 224 210 218 228 245 148 166 179 185 192 199 200 198 197 193 186 180 173 170 178 166 151 148 140 136 144 157 147 147 149 144 141 146 144 141
164 136 149 219 55 205 241 308 197 126 305 283 238 162 170 186 202 213 209 203 198 199 198 194 185 180 174 167 160 150 161 147 144 138 144 138 144 150 146 142 145 142 133 140
216 133 103 157 196 284 298 197 262 199 253 219 214 168 191 189 205 230 215 217 208 200 196 192 191 181 178 162 156 150 145 147 137 143 147 147 164 160 148 143 141 155 159 207
57 69 112 125 190 232 237 250 297 136 291 209 195 217 173 152 192 260 248 227 217 219 205 187 183 183 179 158 154 147 148 147 151 146 144 154 173 176 173 181 201 228 251 256
339 353 126 179 240 284 255 294 48 130 245 84 144 76 3 298 299 325 296 211 217 214 195 185 183 183 171 165 161 153 154 143 138 148 150 174 188 211 224 244 248 258 263 274
190 170 236 98 237 286 328 336 40 249 22 154 162 197 238 262 264 317 267 196 196 192 187 183 180 180 175 174 172 169 166 156 170 183 215 224 238 242 248 263 257 245 258 272
293 186 211 174 218 248 309 220 23 301 168 164 165 168 217 259 260 260 233 204 199 205 192 185 188 185 183 186 187 186 180 184 178 207 214 222 232 242 250 251 242 245 266 275
299 174 205 61 281 274 300 313 285 247 301 210 223 283 239 250 252 252 232 208 205 211 203 197 200 198 196 197 197 202 201 200 202 208 206 213 222 218 242 259 265 273 279 282
222 132 178 264 284 299 260 317 312 254 312 215 226 248 243 238 240 235 212 204 209 208 213 206 204 206 212 207 206 205 207 211 218 217 223 240 249 261 258 271 277 279 283 282
191 191 174 231 239 220 252 304 330 226 185 150 215 246 246 224 214 211 217 212 209 212 212 208 215 217 215 215 213 213 218 225 238 240 243 253 265 272 268 278 274 262 269 278
Height
1517 1524 1531 1524 1519 1516 1524 1531 1532 1522 1516 1519 1524 1519 1517 1514 1517 1518 1520 1521 1519 1522 1527 1530 1533 1537 1541 1544 1545 1548 1551 1554 1557 1558 1563 1566 1568 1569 1569 1570 1571 1570 1569 1571
1524 1532 1522 1518 1514 1519 1524 1533 1530 1521 1519 1518 1524 1520 1515 1510 1503 1508 1515 1517 1520 1522 1522 1525 1529 1532 1534 1537 1542 1544 1547 1551 1553 1556 1559 1563 1565 1564 1564 1566 1566 1567 1565 1566
1527 1523 1521 1518 1515 1526 1531 1535 1533 1528 1522 1520 1518 1518 1513 1503 1507 1510 1511 1515 1516 1519 1518 1521 1525 1527 1532 1534 1537 1541 1544 1546 1547 1550 1554 1557 1560 1561 1561 1561 1561 1563 1564 1563
1525 1520 1524 1524 1523 1529 1542 1522 1518 1524 1530 1546 1528 1543 1510 1501 1504 1504 1508 1511 1512 1513 1514 1519 1521 1525 1525 1528 1533 1537 1541 1544 1546 1547 1550 1550 1552 1555 1557 1558 1561 1560 1560 1561
1524 1523 1527 1530 1520 1522 1523 1518 1514 1516 1530 1538 1534 1546 1515 1507 1504 1500 1503 1505 1509 1511 1514 1518 1518 1519 1524 1530 1533 1532 1535 1539 1543 1545 1546 1548 1548 1551 1555 1556 1556 1559 1560 1560
1518 1514 1518 1512 1507 1510 1508 1518 1523 1527 1536 1555 1530 1535 1515 1513 1500 1497 1498 1501 1502 1506 1509 1514 1518 1521 1522 1526 1530 1534 1532 1534 1538 1541 1544 1546 1548 1550 1551 1552 1553 1556 1556 1556
1513 1513 1505 1505 1511 1511 1516 1527 1551 1553 1559 1554 1534 1538 1510 1499 1495 1493 1493 1495 1497 1500 1502 1506 1509 1511 1515 1519 1526 1527 1530 1530 1534 1537 1540 1544 1547 1549 1550 1551 1550 1551 1551 1551
1525 1531 1503 1500 1502 1512 1520 1527 1547 1553 1560 1541 1530 1538 1508 1499 1494 1491 1492 1495 1495 1495 1495 1492 1499 1503 1509 1513 1519 1523 1526 1526 1530 1533 1535 1537 1540 1543 1545 1546 1546 1546 1548 1547
1527 1520 1495 1495 1499 1501 1517 1529 1511 1525 1538 1545 1532 1516 1506 1500 1496 1492 1491 1494 1494 1494 1494 1494 1495 1500 1505 1508 1514 1519 1523 1522 1523 1528 1532 1534 1535 1530 1540 1542 1545 1547 1546 1546
1505 1522 1500 1498 1497 1497 1501 1501 1525 1534 1539 1540 1535 1524 1516 1507 1501 1497 1493 1491 1496 1497 1498 1496 1495 1499 1501 1504 1508 1512 1514 1519 1527 1530 1532 1532 1520 1533 1537 1539 1542 1543 1543 1543
1500 1512 1509 1501 1505 1507 1510 1516 1517 1527 1536 1543 1550 1526 1500 1499 1496 1500 1500 1498 1499 1500 1501 1499 1496 1496 1499 1501 1505 1509 1512 1518 1525 1501 1526 1526 1531 1531 1535 1539 1542 1542 1541 1543
1495 1512 1520 1506 1497 1499 1502 1507 1518 1537 1532 1536 1540 1527 1494 1490 1491 1496 1499 1499 1500 1501 1501 1501 1500 1499 1500 1503 1503 1506 1510 1513 1519 1522 1524 1524 1530 1528 1532 1537 1540 1540 1541 1542
1493 1517 1537 1527 1514 1504 1506 1505 1509 1520 1528 1529 1532 1522 1494 1494 1494 1496 1499 1500 1500 1501 1500 1500 1499 1499 1499 1503 1506 1508 1511 1514 1519 1523 1523 1523 1524 1523 1529 1536 1539 1539 1541 1541
1492 1518 1524 1540 1522 1513 1510 1505 1503 1511 1532 1524 1523 1505 1499 1497 1495 1495 1496 1497 1499 1500 1500 1499 1498 1498 1500 1503 1505 1510 1513 1515 1515 1516 1518 1518 1518 1523 1530 1535 1537 1538 1539 1540
1496 1515 1515 1512 1509 1508 1503 1503 1500 1504 1506 1515 1501 1501 1486 1490 1490 1491 1495 1498 1498 1498 1498 1498 1498 1499 1501 1503 1505 1505 1509 1513 1514 1512 1515 1518 1522 1527 1532 1533 1537 1539 1538 1540
1499 1511 1506 1507 1501 1503 1505 1498 1494 1492 1493 1495 1491 1492 1482 1483 1487 1491 1491 1493 1493 1492 1493 1496 1499 1502 1505 1507 1505 1505 1506 1511 1516 1518 1521 1524 1526 1528 1532 1535 1537 1538 1539 1542
1501 1511 1520 1521 1505 1506 1513 1494 1488 1488 1489 1492 1499 1481 1481 1485 1485 1484 1485 1487 1488 1491 1494 1496 1498 1502 1504 1507 1509 1509 1509 1512 1517 1521 1523 1526 1528 1531 1533 1534 1536 1539 1541 1544
1502 1509 1517 1519 1509 1527 1497 1485 1483 1488 1490 1489 1487 1482 1481 1481 1480 1481 1484 1488 1491 1493 1495 1497 1499 1503 1505 1508 1510 1510 1514 1516 1518 1522 1527 1528 1529 1532 1534 1534 1537 1539 1540 1543
1494 1504 1514 1519 1525 1508 1489 1487 1487 1488 1489 1484 1486 1483 1481 1481 1482 1480 1485 1487 1488 1490 1492 1495 1502 1505 1508 1508 1510 1512 1514 1517 1518 1524 1528 1530 1533 1534 1534 1534 1536 1538 1540 1542
1495 1495 1505 1523 1518 1521 1495 1481 1482 1483 1499 1480 1482 1482 1484 1485 1491 1475 1477 1482 1488 1491 1493 1496 1499 1505 1509 1508 1512 1513 1516 1518 1521 1525 1528 1532 1533 1533 1532 1534 1535 1537 1538 1540
1508 1509 1510 1518 1518 1504 1484 1480 1480 1497 1498 1479 1486 1488 1492 1497 1491 1482 1477 1481 1486 1490 1492 1497 1500 1504 1507 1509 1512 1515 1517 1518 1522 1525 1527 1531 1532 1533 1533 1534 1535 1536 1537 1537
1506 1511 1514 1518 1515 1512 1482 1479 1485 1487 1481 1478 1480 1483 1482 1485 1485 1485 1484 1484 1487 1490 1493 1497 1500 1504 1507 1510 1512 1514 1517 1519 1522 1524 1527 1529 1530 1531 1532 1532 1533 1533 1533 1533
1505 1499 1504 1504 1500 1482 1481 1481 1483 1482 1480 1479 1481 1477 1478 1476 1477 1485 1489 1486 1487 1490 1492 1495 1498 1502 1505 1508 1511 1513 1517 1518 1520 1523 1524 1526 1528 1529 1530 1529 1530 1530 1530 1529
1489 1488 1494 1493 1483 1481 1480 1480 1479 1479 1478 1476 1474 1470 1472 1473 1475 1481 1487 1485 1487 1489 1491 1493 1496 1500 1503 1506 1508 1512 1514 1517 1519 1520 1521 1524 1526 1527 1527 1527 1527 1527 1526 1526
1489 1487 1491 1490 1481 1479 1479 1478 1476 1476 1473 1469 1473 1470 1471 1473 1474 1476 1481 1483 1486 1488 1490 1492 1495 1498 1501 1504 1506 1509 1511 1514 1516 1518 1520 1522 1523 1523 1523 1523 1523 1523 1522 1522
1482 1483 1487 1486 1477 1477 1476 1475 1473 1472 1472 1470 1471 1471 1472 1473 1473 1475 1477 1480 1483 1486 1488 1490 1493 1496 1499 1502 1504 1506 1509 1511 1514 1515 1516 1518 1519 1520 1520 1520 1519 1519 1519 1518